Regional Weather Roundup
Issued by NWS Wakefield, VA

Home | Current Version | Previous Version | Text Only | Print | Product List | Glossary On
Versions: 1 2 3 4 5 6 7 8 9 10 11 12 13 14 15 16 17 18 19 20 21 22 23 24 25 26 27 28 29 30 31 32 33 34 35 36 37 38 39 40 41 42 43 44 45 46 47 48 49 50
000
ASUS41 KAKQ 040415
RWRAKQ

REGIONAL WEATHER ROUNDUP
NATIONAL WEATHER SERVICE WAKEFIELD VA
1200 AM EDT FRI SEP 04 2015

Note: "fair" indicates few or no clouds below 12,000 feet with no
significant weather and/or obstructions to visibility. * = Denotes
station may not report precipitation (e.g., rain,snow,etc.),
thunder or fog.

VAZ042-051-052>054-056-040500-
NORTHERN VIRGINIA

CITY           SKY/WX    TMP DP  RH WIND       PRES   REMARKS
WASH NATIONAL  CLOUDY    79  69  71 N6        29.90S
DULLES         MOCLDY    77  67  71 NW3       29.92R
FORT BELVOIR   MOCLDY    73  69  89 CALM      29.90R
QUANTICO       MOCLDY    78  71  79 SW3       29.91R
FREDERICKSBRG* PTCLDY    75  70  85 CALM      29.90S
STAFFORD*      MOCLDY    74  70  87 CALM      29.95S
WARRENTON      MOCLDY    74  71  89 CALM      29.91S
CULPEPER*      CLOUDY    70  69  97 CALM      29.93S FOG
MANASSAS*      MOCLDY    75  73  94 CALM      29.91S
LEESBURG*      MOCLDY    75  72  88 SW7       29.93S
WINCHESTER     PTCLDY    72  68  88 CALM      29.95R
FRONT ROYAL*   FAIR      70  68  94 S6        29.94S
LURAY*         FAIR      70  70 100 CALM      29.97S
$$

VAZ048-049-060>072-079>083-040500-
CENTRAL AND SOUTH CENTRAL VIRGINIA

CITY           SKY/WX    TMP DP  RH WIND       PRES   REMARKS
RICHMOND       PTCLDY    79  69  71 NW3       29.90F
CHESTERFIELD*  FAIR      73  63  68 NW5       29.92S
PETERSBURG*    CLEAR     72  72 100 CALM      29.91S FOG
HANOVER        CLEAR     74  70  87 CALM      29.92S
TAPPAHANNOCK*  CLEAR     73  70  89 CALM      29.90F FOG
QUINTON*       FAIR      73  73  99 S6        29.89S FOG
CHARLOTTSVILLE LGT RAIN  74  68  81 W5        29.94S
GORDONSVILLE*  FAIR      77  69  76 CALM      29.92F
ORANGE*        MOCLDY    77  64  65 SW7       29.93F
LOUISA*        PTCLDY    73  70  88 NW3       29.92S
BUMPASS*       FAIR      71  69  95 CALM      29.91F
FARMVILLE*     PTCLDY    72  68  88 CALM      29.92S
CREWE*         FAIR     N/A N/A N/A CALM      29.92S
FORT PICKETT*  FAIR      73  71  91 CALM      29.92S
CHASE CITY*    FAIR      74  74 100 CALM      29.92F
CLARKSVILLE*   FAIR      73  72  94 CALM      29.93S
SOUTH HILL*    PTCLDY    71  70  96 CALM      29.98F
LAWRENCEVILLE* FAIR      72  72 100 CALM      29.91F
EMPORIA*       FOG       72  72 100 CALM      29.92S VSB 1/4
$$

VAZ088>098-040500-
SOUTHEAST VIRGINIA

CITY           SKY/WX    TMP DP  RH WIND       PRES   REMARKS
NORFOLK        CLEAR     77  70  79 SW6       29.89S
VIRGINIA BEACH PTCLDY    79  71  76 SW3       29.88F
NORFOLK NAVAL  PTCLDY    76  72  87 SW3       29.90S
WEST POINT*    CLEAR     74  71  88 CALM      29.90F
SALUDA*        FAIR      74  70  87 CALM      29.89S
NEWPORT NEWS   CLEAR     73  69  87 CALM      29.89F
LANGLEY AFB    CLEAR     74  70  88 SW6       29.88S
FORT EUSTIS    CLEAR     75  75 100 CALM      29.87F
WILLIAMSBURG*  CLEAR     79  75  89 CALM      29.90F
HR EXEC AP*      N/A     70  66  88 CALM      29.91F
FRANKLIN*      PTCLDY    73  72  98 CALM      29.90S FOG
WAKEFIELD      CLEAR     73  70  90 CALM      29.90S FOG
$$

VAZ020-022-025-037-045-040500-
WEST CENTRAL AND SOUTHWEST VIRGINIA

CITY           SKY/WX    TMP DP  RH WIND       PRES   REMARKS
STAUNTON*      PTCLDY    72  68  89 CALM      30.01S
WAYNESBORO*    FAIR      71  66  84 CALM      30.01S
HOT SPRINGS VA CLEAR     67  64  88 N6        30.13S
LYNCHBURG      PTCLDY    70  66  87 N3        29.97S
DANVILLE       CLEAR     71  67  87 CALM      29.94S
SOUTH BOSTON*  FAIR      71  70  95 CALM      29.93F
MARTINSVILLE   PTCLDY    69  69 100 CALM      30.00S
ROANOKE        CLEAR     73  66  78 CALM      30.00F
BLACKSBURG     CLEAR     66  66 100 CALM      30.08S
DUBLIN*        CLOUDY    71  66  87 CALM      30.07S
MARION*        CLOUDY    67  65  94 CALM      30.11F FOG
HILLSVILLE*    MOCLDY    70  64  82 CALM      30.08S
RICHLANDS*     FAIR      69  37  30 CALM      30.10S
WISE*          CLEAR     70  63  78 CALM      30.11F
ABINGDON*      CLEAR     70  65  84 CALM      30.06S
$$

MDZ021>025-VAZ099-100-040500-
SOUTHERN MARYLAND AND THE DELMARVA PENINSULA

CITY           SKY/WX    TMP DP  RH WIND       PRES   REMARKS
PATUXENT RIVER MOCLDY    75  70  84 NW3       29.88F
BAY BRIDGE APT   N/A     81  70  69 W3        29.89R
LEONARDTOWN    NOT AVBL
DOVER          CLEAR     75  75 100 N2        29.87R
GEORGETOWN     CLEAR     76  69  79 W3        29.89R
EASTON         NOT AVBL
CAMBRIDGE      PTCLDY    72  68  88 CALM      29.88S
SALISBURY      CLEAR     74  71  91 CALM      29.88S
OCEAN CITY     CLEAR     76  70  82 W5        29.88R
WALLOPS ISLAND CLEAR     75  73  93 W3        29.88F
ACCOMACK*      CLEAR     68  63  83 CALM      29.86F
$$

NCZ012>017-030>032-040500-
NORTH CENTRAL AND EASTERN NORTH CAROLINA

CITY           SKY/WX    TMP DP  RH WIND       PRES   REMARKS
ROANOKE RAPIDS FAIR      72  72 100 CALM      29.91S FOG
RALEIGH        PTCLDY    72  67  84 CALM      29.93S
ELIZABETH CITY PTCLDY    71  70  96 CALM      29.90S FOG
AHOSKIE*       PTCLDY    72  71  96 CALM      29.91S FOG
EDENTON*       PTCLDY    74  71  91 N3        29.90S
CURRITUCK*     PTCLDY    74  70  87 CALM      29.91R
KILL DEVIL HLS PTCLDY    77  72  84 SW3       29.89S
MANTEO         PTCLDY    78  73  85 W5        29.91S
CAPE HATTERAS  CLEAR     75  72  90 W3        29.91R
TARBORO*       FAIR      72  71  96 CALM      29.92S FOG
GOLDSBORO      PTCLDY    74  72  91 CALM      29.90S
WASHINGTON     PTCLDY    73  71  96 CALM      29.91R
GREENVILLE     PTCLDY    73  73 100 CALM      29.93S FOG
NEW BERN       CLEAR     74  71  91 CALM      29.92S
WILMINGTON     MOCLDY    74  70  87 CALM      29.91R
$$

VAZ048-040500-
ELSEWHERE

CITY           SKY/WX    TMP DP  RH WIND       PRES   REMARKS
HARRISBURG PA  MOCLDY    76  68  76 CALM      29.91R
BALTIMORE      MOCLDY    75  69  81 CALM      29.89S
ANNAPOLIS      MOCLDY    78  73  84 CALM      29.88S
ANDREWS AFB    MOCLDY    74  71  91 W1        29.90R
PHILADELPHIA   MOCLDY    80  69  69 SE3       29.90S
HENDERSON NC   CLEAR     72  69  90 CALM      29.93F FOG
GREENSBORO     PTCLDY    76  66  71 NW5       29.95S
ROCKY MOUNT    PTCLDY    73  72  96 CALM      29.91S FOG
$$

VAZ100-040500-
MARINE

STATION/POSITION TIME  TEMP    WIND        PRES    WAVE   SWELL
                       AIR SEA DIR/SP/G            HT/PER HT/PER
                 (UTC) (F)     (DEG/KT/KT) (MB)    (FT/S) (FT/S)
BRANDYWINE LGT   0300   78 77  170/  6/  6 1011.9F
CAPE MAY NJ      0300   75 81  100/  3/  4 1011.4F
LEWES DE         0300   78 77  160/  2/  2 1011.4F
15NM E FENWICK I 0350   80 80  170/  4/  6 1011.8F   1/10   2/10
OCEAN-CITY-INLET 0300   79 80  260/  5/  6 1010.8F
GOOSES REEF MD   0400   81 80  270/  4/  6 1013.1R
COVE POINT MD    0300   81      CALM  /  2 1012.6F
SOLOMONS ISLAND  0300      82                N/A
BISHOPS HEAD MD  0300   82 83  220/  3/  4 1011.2S
PINEY POINT MD   0311          330/ 11/ 14   N/A
POTOMAC MD       0400   82 81  270/  4/  6 1010.9S   0
CAMBRIDGE MD     0300   81 82  260/  3/  4 1011.0F
LEWISETTA VA     0300   80 83  230/  3/  3 1011.7F
RAPPAHANNOCK LGT 0300          210/  3/  4 1012.7R
STINGRAY PT      0400   82 81  290/  4/  4 1012.5S   0
YORK RVR RNG VA  0300   82     250/  6/  7 1011.6S
JAMESTOWN VA     0400   78 82  260/  2/  2   N/A
DOMINION TERM VA 0300   81     240/  4/  5 1012.1F
KIPTOPEKE VA     0300      80  220/  2/  3   N/A
CHES BAY BRIDGE  0300   80 81  190/  5/  5 1011.7F
CAPE HENRY VA    0300   79     210/  6/  8   N/A
CHESAPEAKE LGHT  0300   80     210/  7/  8 1012.8F
WILLOUBY STN VA  0300   80      CALM  /  2 1013.2S
CAPE HENRY BUOY  0328      80                N/A     1/13
1ST LANDING BUOY 0400      80              1011.8S   1
CAPE CHARLES BUO 0326      80                N/A     1/13   2/13
OFFSHORE WE BUOY 0311      80                N/A     1/11   2/11
64NM E OF VA BCH 0350   79 79  250/  6/  6 1011.9R   1/12   2/12
DUCK PIER NC     0300   80 80  220/  4/  5 1011.5F
44100 DUCK FRF   0324      79                N/A     1/13
44056 DUCK FRF   0311      80                N/A     1/13
OREGON INLET NC  0300   81 83  240/  5/  7 1012.2F
HATTERAS NC      0300   79 84  230/  5/  5 1012.3S
DIAMOND SHLS NC  0350   81 85  300/  8/ 10 1012.7R   1/11   2/11
CAPE LOOKOUT NC  0400   80     270/  3/  3 1012.4R
$$


USA.gov is the U.S. government's official web portal to all federal, state and local government web resources and services.